SCP
0 0 0 0 0 0 0 0 0 0 0 0 0 0 0 0 0 0 0 0 0 0 0 0 0 0 0 0 0 0 0 0 0 0 0 0 0 0 0 0 0 0 0 0 0 0 0 0 0
0 0 0 0 0 0 0 0 0 0 0 0 0 0 0 0 0 0 0 0 0 0 0 0 1 1 0 0 0 0 0 0 0 0 0 0 0 0 0 0 0 0 0 0 0 0 0 0 0
0 0 0 0 0 0 0 0 0 0 0 0 0 0 0 0 0 0 0 0 0 0 0 1 1 1 1 0 0 0 0 0 0 0 0 0 0 0 0 0 0 0 0 0 0 0 0 0 0
0 0 0 0 0 0 0 0 0 0 0 0 0 0 0 0 0 0 0 0 0 0 0 1 1 1 1 0 0 0 0 0 0 0 0 0 0 0 0 0 0 0 0 0 0 0 0 0 0
0 0 0 0 0 0 0 0 0 0 0 0 0 0 0 0 0 0 0 0 0 0 0 1 1 1 1 0 0 0 0 0 0 0 0 0 0 0 0 0 0 0 0 0 0 0 0 0 0
0 0 0 0 0 0 0 0 0 0 0 0 0 0 0 0 0 0 0 0 0 0 0 1 1 1 0 0 0 0 0 0 0 0 0 0 0 0 0 0 0 0 0 0 0 0 0 0 0
0 0 0 0 0 0 0 0 0 0 0 0 0 0 0 0 0 0 0 0 0 0 1 1 0 0 0 0 0 0 0 0 0 0 0 0 0 0 0 0 0 0 0 0 0 0 0 0 0
0 0 0 0 0 0 0 0 0 0 0 0 0 0 0 0 0 0 0 0 0 0 0 0 0 0 0 0 0 0 0 0 0 0 0 0 0 0 0 0 0 0 0 0 0 0 0 0 0
0 0 0 0 0 0 0 0 0 0 0 0 0 0 0 0 0 0 0 0 0 0 0 0 0 0 0 0 0 0 0 0 0 0 0 0 0 0 0 0 0 0 0 0 0 0 0 0 0
0 0 0 0 0 0 0 0 0 0 0 0 0 0 0 0 0 0 0 0 0 0 0 0 0 0 0 0 0 0 0 0 0 0 0 0 0 0 0 0 0 0 0 0 0 0 0 0 0
0 0 0 0 0 0 0 0 0 0 0 0 0 0 0 0 0 0 0 0 0 0 0 0 0 0 0 0 0 0 0 0 0 0 0 0 0 0 0 0 0 0 0 0 0 0 0 0 0
0 0 0 0 0 0 0 0 0 0 0 0 0 0 0 0 0 0 0 0 0 0 0 0 0 0 0 0 0 0 0 0 0 0 0 0 0 0 0 0 0 0 0 0 0 0 0 0 0
0 0 0 0 0 0 0 0 0 0 0 0 0 0 0 0 0 0 0 0 0 0 0 0 0 0 0 0 0 0 0 0 0 0 0 0 0 0 0 0 0 0 0 0 0 0 0 0 0
0 0 0 0 0 0 0 0 0 0 0 0 0 0 0 0 0 0 0 0 0 0 0 0 0 0 0 0 0 0 0 0 0 0 0 0 0 0 0 0 0 0 0 0 0 0 0 0 0
0 0 0 0 0 0 0 0 0 0 0 0 0 0 0 0 0 0 0 0 0 0 0 0 0 0 0 0 0 0 0 0 0 0 0 0 0 0 0 0 0 0 0 0 0 0 0 0 0
0 0 0 0 0 0 0 0 0 0 0 0 0 0 0 0 0 0 0 0 0 0 0 0 0 0 0 0 0 0 0 0 0 0 0 0 0 0 0 0 0 0 0 0 0 0 0 0 0
0 0 0 0 0 0 0 0 0 0 0 0 0 0 0 0 0 0 0 0 0 0 0 0 0 0 0 0 0 0 0 0 0 0 0 0 0 0 0 0 0 0 0 0 0 0 0 0 0
0 0 0 0 0 0 0 0 0 0 0 0 0 0 0 0 0 0 0 0 0 0 0 0 0 0 0 0 0 0 0 0 0 0 0 0 0 0 0 0 0 0 0 0 0 0 0 0 0
0 0 0 0 0 0 0 0 0 0 0 0 0 0 0 0 0 0 0 0 0 0 0 0 0 0 0 0 0 0 0 0 0 0 0 0 0 0 0 0 0 0 0 0 0 0 0 0 0
0 0 0 0 0 0 0 0 0 0 0 0 0 0 0 0 0 0 0 0 0 0 0 0 0 0 0 0 0 0 0 0 0 0 0 0 0 0 0 0 0 0 0 0 0 0 0 0 0
0 0 0 0 0 0 0 0 0 0 0 0 0 0 0 0 0 0 0 0 0 0 0 0 0 0 0 0 0 0 0 0 0 0 0 0 0 0 0 0 0 0 0 0 0 0 0 0 0
0 0 0 0 0 0 0 0 0 0 0 0 0 0 0 0 0 0 0 0 0 0 0 0 0 0 0 0 0 0 0 0 0 0 0 0 0 0 0 0 0 0 0 0 0 0 0 0 0
0 0 0 0 0 0 0 0 0 0 0 0 0 0 0 0 0 0 0 0 0 0 0 0 0 0 0 0 0 0 0 0 0 0 0 0 0 0 0 0 0 0 0 0 0 0 0 0 0
0 0 0 0 0 0 0 0 0 0 0 0 0 0 0 0 0 0 0 0 0 0 0 0 0 0 0 0 0 0 0 0 0 0 0 0 0 0 0 0 0 0 0 0 0 0 0 0 0
0 0 0 0 0 0 0 0 0 0 0 0 0 0 0 0 0 0 0 0 0 0 0 0 0 0 0 0 0 0 0 0 0 0 0 0 0 0 0 0 0 0 0 0 0 0 0 0 0
0 0 0 0 0 0 0 0 0 0 0 0 0 0 0 0 0 0 0 0 0 0 0 0 0 0 0 0 0 0 0 0 0 0 0 0 0 0 0 0 0 0 0 0 0 0 0 0 0
0 0 0 0 0 0 0 0 0 0 0 0 0 0 0 0 0 0 0 0 0 0 0 0 0 0 0 0 0 0 0 0 0 0 0 0 0 0 0 0 0 0 0 0 0 0 0 0 0
0 0 0 0 0 0 0 0 0 0 0 0 0 0 0 0 0 0 0 0 0 0 0 0 0 0 0 0 0 0 0 0 0 0 0 0 0 0 0 0 0 0 0 0 0 0 0 0 0
0 0 0 0 0 0 0 0 0 0 0 0 0 0 0 -0 0 0 0 0 0 0 0 0 0 0 0 0 0 0 0 0 0 0 0 0 0 0 0 0 0 0 0 0 0 0 0 0 0
0 0 0 0 0 0 0 0 0 0 0 0 0 0 0 -0 0 0 0 0 0 0 0 0 0 0 0 0 0 0 0 0 0 0 0 0 0 0 0 0 0 0 0 0 0 0 0 0 0
Wind_Speed
2 3 3 4 6 7 13 9 5 5 6 4 3 4 5 5 3 2 5 8 11 13 12 14 12 12 12 12 12 12 12 12 12 12 11 11 11 10 10 10 9 9 9 9 9 9 9 9 8
3 4 5 5 8 11 10 10 10 7 3 4 4 4 4 3 2 5 6 9 12 12 12 12 13 12 12 12 12 12 12 12 11 11 11 11 11 10 10 10 10 9 9 9 9 9 9 9 9
4 4 5 6 9 13 8 7 9 6 4 5 5 3 2 2 4 5 6 11 12 12 11 13 12 12 12 12 12 12 12 12 11 11 11 11 10 10 10 10 10 9 9 9 9 9 8 8 8
5 5 5 9 15 13 7 3 4 7 6 5 4 5 3 2 2 5 9 12 13 12 11 13 12 13 12 12 12 12 11 11 11 11 10 10 10 10 10 10 10 9 9 9 8 8 8 7 7
4 5 8 11 15 10 8 4 4 7 7 7 6 4 4 4 4 7 11 12 12 11 10 13 12 12 12 12 12 11 11 11 10 10 10 10 10 9 9 9 9 9 9 8 8 8 8 7 7
5 6 10 15 15 10 8 7 6 7 6 6 6 5 4 5 7 9 11 11 11 11 10 11 12 12 12 12 11 11 11 11 10 9 10 10 10 9 9 9 9 9 8 8 8 8 8 7 7
7 7 12 14 13 11 8 7 9 8 9 7 5 5 6 7 7 10 11 11 11 10 10 10 11 11 11 11 11 11 11 10 10 10 10 10 10 9 9 9 9 8 8 8 8 8 8 7 7
5 6 11 12 12 11 6 7 5 8 6 3 5 6 6 9 10 11 11 10 10 9 9 9 9 9 10 10 11 11 11 10 10 11 10 9 9 9 9 9 9 8 8 8 8 7 7 7 7
5 9 13 12 10 7 6 7 4 2 4 4 3 1 4 12 13 12 11 10 9 9 9 9 9 9 8 9 10 10 10 10 10 9 9 6 6 6 6 9 9 9 8 8 8 7 7 5 5
9 12 14 7 6 4 6 6 6 6 8 7 6 4 8 13 14 15 15 14 12 11 10 8 9 9 8 7 7 6 6 6 6 5 6 4 4 5 6 8 8 8 8 7 7 6 4 2 2
11 13 10 7 5 4 4 5 5 7 8 9 9 10 13 15 14 15 14 14 13 11 10 9 9 8 8 6 5 4 4 4 5 5 5 4 4 4 3 3 4 4 4 4 3 2 2 3 3
11 12 9 6 4 5 5 4 5 9 5 1 4 9 15 16 16 15 14 13 12 11 10 9 9 8 7 6 5 4 4 3 3 4 4 3 3 3 3 2 2 2 2 2 2 2 3 3 3
14 10 9 7 5 5 5 6 6 8 6 3 4 10 14 15 15 14 12 12 12 11 10 9 9 9 7 6 5 4 4 4 4 3 3 3 3 3 3 2 2 2 2 2 2 2 2 3 3
10 9 8 8 8 7 8 8 8 8 4 5 8 11 13 13 14 13 13 13 13 12 11 10 10 9 8 6 5 5 4 4 4 3 4 3 3 3 2 2 2 2 1 2 1 2 2 2 2
7 8 9 9 10 8 7 12 13 9 6 7 9 10 11 12 12 13 14 14 13 12 11 11 10 9 9 7 6 4 4 4 4 3 4 3 3 3 2 2 2 2 1 1 1 2 1 2 2
10 10 11 9 10 8 11 15 11 7 9 10 9 10 10 11 12 12 12 12 12 12 12 11 8 9 9 7 6 4 4 4 4 3 3 4 3 3 2 2 2 1 1 1 1 1 1 2 2
11 13 15 10 9 8 12 13 7 5 8 10 9 9 10 10 12 11 12 12 12 12 12 11 10 10 9 7 6 5 4 4 3 3 3 3 3 3 2 2 2 1 1 1 1 1 1 2 2
14 15 14 13 7 10 13 13 7 6 8 9 8 9 10 11 11 10 10 11 11 11 11 12 11 10 9 7 5 4 4 4 3 3 3 4 3 3 2 2 2 1 1 1 1 1 2 2 2
10 12 13 10 5 10 14 15 12 9 9 10 10 10 10 11 9 8 9 10 11 11 12 12 12 11 9 7 6 5 5 4 4 3 4 4 3 3 2 2 2 1 1 1 1 1 2 2 2
10 11 11 6 4 7 10 14 12 12 13 12 12 12 11 10 9 8 9 10 11 13 13 13 13 12 11 8 6 4 5 4 3 3 3 3 3 3 2 2 2 1 1 1 1 1 1 1 2
12 12 10 6 4 6 7 12 13 10 11 10 11 11 10 10 10 9 10 11 11 12 13 12 13 12 11 9 6 5 4 4 4 4 3 3 3 3 3 2 2 1 1 1 0 0 0 0 1
11 9 8 8 7 6 7 8 10 9 9 10 10 9 9 9 9 9 9 10 11 12 11 12 12 12 11 11 9 10 7 6 5 5 4 4 4 4 3 3 2 2 1 1 0 0 1 1 1
5 4 7 9 9 7 8 9 8 7 10 10 9 8 8 7 8 8 9 9 10 10 10 11 12 12 11 11 11 10 8 5 4 5 6 5 4 4 3 3 2 2 1 1 1 1 1 1 1
4 3 2 5 6 10 11 11 9 7 9 8 7 6 6 6 6 6 6 7 7 8 9 10 12 12 11 11 11 10 9 8 7 7 6 5 4 3 4 3 3 2 2 1 1 1 1 1 2
7 6 4 6 7 8 8 10 8 3 4 6 6 5 4 4 4 4 5 6 7 8 9 10 12 12 12 11 10 10 9 9 9 8 7 5 4 3 4 3 3 2 2 2 2 2 2 2 2
10 10 6 6 8 5 7 11 4 1 1 3 3 2 2 2 2 3 4 5 6 8 9 10 11 11 11 11 10 9 9 7 6 7 6 6 4 4 4 4 3 3 3 2 2 2 2 2 2
8 7 3 2 2 5 7 6 4 3 3 2 1 1 1 1 1 2 3 4 5 7 9 10 11 10 11 10 9 8 8 7 6 6 6 4 4 3 4 4 4 3 3 2 2 2 2 2 2
4 4 4 5 5 6 7 8 5 3 3 1 1 2 2 2 1 1 1 2 4 5 7 9 10 10 10 9 8 7 8 7 6 6 6 5 4 4 4 4 3 3 3 2 2 2 2 2 2
4 5 3 4 4 5 5 3 1 2 1 2 2 3 2 2 2 1 1 1 3 4 6 7 8 9 8 8 8 7 7 6 6 5 5 5 4 4 4 4 3 3 2 2 2 2 2 2 2
3 5 5 5 4 4 4 1 3 2 3 3 3 3 3 3 2 2 1 1 3 4 5 6 7 8 8 7 7 7 6 6 6 5 5 5 4 4 4 3 3 2 2 2 2 2 2 2 2
Wind_Direction
202 194 198 208 210 223 232 217 214 186 191 193 186 198 212 201 210 80 93 149 143 144 142 140 138 138 134 130 125 122 118 115 112 110 107 104 101 98 95 93 90 87 84 80 77 75 71 70 69
191 187 198 213 225 219 222 215 209 201 152 148 176 203 204 191 52 89 137 148 147 142 142 138 131 132 131 129 127 124 120 116 113 110 107 104 101 97 93 90 87 86 84 80 76 73 70 69 65
176 215 212 209 225 228 220 198 209 179 161 180 175 202 231 125 119 123 132 148 147 142 140 130 131 130 128 126 125 125 122 118 115 112 108 105 101 96 92 89 85 84 82 80 76 74 72 69 64
185 194 216 228 224 228 241 166 176 179 180 201 195 168 148 64 103 119 138 153 148 143 139 130 132 130 128 126 124 121 121 120 117 113 109 106 101 96 91 89 85 82 79 78 75 73 71 67 64
212 208 209 224 229 224 229 226 191 193 181 185 200 186 144 114 113 133 148 155 149 141 136 133 130 129 127 126 125 121 118 118 118 116 111 107 102 97 93 89 86 82 78 76 73 70 66 62 61
196 215 218 222 221 220 223 214 204 206 188 177 197 192 132 124 145 146 151 154 147 140 137 134 126 125 125 125 123 121 118 115 114 114 110 105 102 99 95 90 85 81 77 74 70 67 64 60 59
212 214 229 230 227 222 216 200 213 210 202 189 189 184 141 149 146 149 151 149 145 144 140 138 138 132 126 123 120 117 114 112 110 105 104 101 98 96 93 89 84 80 76 72 68 65 63 61 59
230 228 229 227 226 224 200 191 220 222 212 155 196 201 161 149 148 148 146 146 144 146 144 143 141 140 140 132 119 115 112 109 104 98 94 96 99 95 91 89 81 78 75 71 68 63 61 59 58
212 228 227 220 221 218 185 194 184 217 190 177 200 312 93 136 149 150 150 151 151 151 151 148 144 141 139 135 125 121 113 107 108 102 97 104 111 106 98 80 77 75 72 69 66 63 62 60 69
205 226 230 230 229 218 188 204 185 185 195 194 184 154 138 151 163 166 167 166 165 163 159 154 149 145 140 134 133 131 125 123 121 118 117 110 101 91 91 86 77 76 74 73 64 61 66 38 67
208 227 230 229 229 233 206 204 197 207 211 210 197 171 159 167 174 179 177 174 170 164 160 159 153 149 145 139 136 131 126 122 119 117 117 114 105 104 97 99 97 88 80 73 71 68 46 37 35
218 227 229 227 221 228 223 209 213 228 234 277 210 170 168 175 182 185 182 176 170 167 164 162 158 152 149 144 140 138 134 128 122 121 123 121 110 103 93 90 87 82 70 61 52 41 46 40 37
221 223 225 232 229 235 236 235 246 244 254 253 192 178 183 184 187 188 184 178 174 172 169 167 162 157 152 146 143 140 137 134 126 123 121 117 116 110 104 94 86 79 71 69 52 47 44 36 31
216 221 225 233 234 235 238 249 246 241 231 211 194 194 194 192 190 186 185 185 183 180 174 168 168 163 157 156 151 143 138 134 132 126 122 121 114 113 115 106 85 73 64 52 45 43 30 26 21
209 218 229 229 227 224 230 246 237 236 222 218 208 203 200 198 195 195 192 190 188 183 175 172 168 166 164 159 154 145 143 144 137 128 129 123 118 121 118 109 98 73 61 73 58 48 22 23 15
201 217 225 215 212 213 219 243 231 222 217 221 215 208 205 203 202 201 198 194 189 184 178 172 167 169 168 162 157 150 150 149 139 133 132 128 124 125 121 114 97 84 70 61 57 26 13 16 358
200 218 222 217 207 204 218 245 232 208 218 223 217 212 211 208 209 204 200 196 191 187 179 174 171 171 167 161 157 151 150 151 143 139 136 135 133 137 129 116 106 107 76 51 45 20 360 6 359
204 216 221 219 199 212 226 239 234 226 228 230 224 219 217 215 211 204 200 196 190 187 181 176 173 171 162 157 154 149 152 155 152 146 143 143 143 145 131 124 120 113 99 60 33 38 21 12 354
223 222 226 228 220 224 234 243 243 237 237 237 232 226 223 223 214 203 198 191 186 185 183 180 177 173 167 165 167 167 171 167 161 152 151 152 147 147 141 133 132 135 111 69 41 38 43 28 359
219 221 224 225 215 233 243 250 249 242 240 239 239 234 228 223 212 202 196 189 188 186 185 184 182 178 178 177 172 171 161 166 159 153 155 156 156 155 157 154 150 143 129 114 80 50 26 33 2
221 224 221 216 222 233 255 252 236 232 235 239 241 240 235 225 217 208 201 196 192 191 189 186 185 182 181 175 161 145 141 149 163 169 168 171 169 165 166 166 160 153 156 145 117 87 326 349 1
225 220 218 208 211 222 222 256 228 219 229 233 235 232 232 228 223 216 206 201 198 195 189 188 185 182 181 176 174 170 177 178 182 177 172 171 175 170 169 169 172 169 171 168 182 294 299 270 280
221 208 218 221 225 238 224 246 244 214 230 227 227 227 228 224 220 216 211 205 200 193 188 187 183 181 180 182 182 182 185 179 165 166 170 172 172 174 174 176 179 181 188 197 213 238 262 271 273
156 143 181 216 219 233 219 225 245 211 224 227 230 233 232 222 216 214 209 198 195 188 183 184 182 181 180 183 186 188 183 172 166 172 173 176 174 177 178 184 186 192 198 207 224 242 248 263 272
181 172 178 193 204 225 195 222 244 221 241 241 239 238 233 219 210 207 203 196 190 184 181 183 184 181 180 182 187 190 185 179 178 178 180 180 182 185 188 191 198 200 211 219 227 241 252 257 264
206 204 210 211 210 207 196 227 232 218 236 239 256 261 235 216 204 205 204 197 191 186 182 181 184 182 179 181 185 188 185 183 183 184 183 188 190 190 187 195 203 208 213 219 225 237 247 260 266
192 212 253 265 245 226 213 231 233 218 213 209 242 335 336 269 220 212 202 194 191 188 185 183 181 180 180 181 181 183 183 183 182 181 183 185 185 182 186 193 200 205 214 221 228 236 244 262 269
215 183 196 205 204 219 215 227 215 191 221 217 284 314 326 327 326 297 219 195 188 185 182 181 179 178 176 177 177 178 180 182 180 178 178 177 177 177 182 188 195 201 208 220 229 241 251 260 274
189 198 214 206 249 245 222 211 54 226 274 275 293 321 329 331 323 314 290 192 172 168 171 174 176 172 170 172 172 171 171 174 174 174 174 171 169 174 181 184 191 198 206 218 227 243 252 260 276
247 217 205 211 213 247 260 192 27 332 336 325 329 343 346 351 351 355 18 147 152 157 165 169 172 170 168 166 166 165 162 164 168 168 166 163 164 169 176 179 186 192 202 216 231 245 254 262 277